Voltar ao catálogo

STARLINK-34295

AtivoComunicaçõesVLEO
NORAD 64455·PAYLOAD·🇺🇸 United States

Lançado Jun 18, 2025 de Cape Canaveral Space Force Station

Loading…

Próximas Passagens (próximas 24 horas)

TLE

AtualizadoSource: CelesTrak SupGP

Época: Sep 14, 2026, 21:05 UTC

1 64455C 25130T   26257.87895833  .00026708  00000+0  78936-3 0  2573
2 64455  53.1587 285.7732 0001201  86.8431 328.1585 15.34366473    18

Acompanhe STARLINK-34295 em tempo real com AllMySat

Download on the App Store